Location: ???????
(55.4231°N, 38.5570°E)
Time: 14:44:05
(UTC+00:00)

RESURS DK-1 - Pass Details

Date: 05 August 2024
Orbit: 537 x 546 km, 69.9° (Epoch: 18 September)

Event Time Altitude Azimuth Distance (km) Brightness Sun altitude
Exits shadow 00:02:39 - 267° (W) 2,289 5.1 -11.0°
Reaches altitude 10° 00:04:06 10° 278° (W) 1,821 4.7 -10.9°
Maximum altitude 00:07:13 21° 329° (NNW) 1,271 4.4 -10.6°
Drops below altitude 10° 00:10:22 10° 19° (NNE) 1,833 6.3 -10.3°
Sets 00:13:01 0° 36° (NE) 2,731 8.2 -10.1°
